This is the latest recevied weather packets stored in our database for station/object p43g-13. If no packets are shown the sender has not sent any weather packets the latest 10 day(s).
| Time | Temp. | Humidity | Pressure | Rain* | Wind** | Luminosity | Snow |
|---|---|---|---|---|---|---|---|
| 1787516716 | 31.11° C | 78% | 1009.4 hPa | 0 mm | - | 218 W/m² | - |
| 1787516416 | 31.11° C | 78% | 1009.1 hPa | 0 mm | - | 513 W/m² | - |
| 1787516115 | 31.11° C | 78% | 1009.2 hPa | 0 mm | - | 536 W/m² | - |
| 1787515816 | 31.11° C | 77% | 1009.2 hPa | 0 mm | - | 201 W/m² | - |
| 1787515516 | 31.67° C | 77% | 1009 hPa | 0 mm | - | 224 W/m² | - |
| 1787515216 | 31.67° C | 76% | 1009.3 hPa | 0 mm | - | 636 W/m² | - |
| 1787514915 | 31.67° C | 75% | 1009.2 hPa | 0 mm | - | 601 W/m² | - |
| 1787514616 | 31.67° C | 75% | 1009.4 hPa | 0 mm | - | 693 W/m² | - |
| 1787514317 | 31.67° C | 76% | 1009.3 hPa | 0 mm | - | 281 W/m² | - |
| 1787514015 | 31.67° C | 76% | 1009.3 hPa | 0 mm | - | 668 W/m² | - |
| 1787513718 | 31.67° C | 75% | 1009.4 hPa | 0 mm | - | 296 W/m² | - |
| 1787513416 | 31.67° C | 75% | 1009.5 hPa | 0 mm | - | 519 W/m² | - |
| 1787513117 | 31.67° C | 75% | 1009.7 hPa | 0 mm | - | 858 W/m² | - |
| 1787512816 | 31.67° C | 75% | 1009.8 hPa | 0 mm | - | 366 W/m² | - |
| 1787512516 | 32.22° C | 74% | 1010 hPa | 0 mm | - | 308 W/m² | - |
| 1787512217 | 32.22° C | 74% | 1010.1 hPa | 0 mm | - | 290 W/m² | - |
| 1787511904 | 32.22° C | 73% | 1010.3 hPa | 0 mm | - | 807 W/m² | - |
| 1787511604 | 31.67° C | 75% | 1009.9 hPa | 0 mm | - | 368 W/m² | - |
| 1787511304 | 31.67° C | 75% | 1010 hPa | 0 mm | - | 604 W/m² | - |
| 1787510992 | 31.67° C | 73% | 1010 hPa | 0 mm | - | 886 W/m² | - |
| 1787510692 | 32.22° C | 73% | 1010.2 hPa | 0 mm | - | 290 W/m² | - |
| 1787510391 | 32.78° C | 73% | 1010.2 hPa | 0 mm | - | 326 W/m² | - |
| 1787510080 | 32.22° C | 73% | 1010.2 hPa | 0 mm | - | 808 W/m² | - |
| 1787509780 | 32.22° C | 72% | 1010.1 hPa | 0 mm | - | 821 W/m² | - |
| 1787509480 | 32.22° C | 71% | 1010.2 hPa | 0 mm | - | 826 W/m² | - |
* Rain latest hour (hover to see other rain measurements)
** Current wind speed in m/s (hover to see current wind gust speed)